Nashua, NH

12:50 AM EDT on March 23, 2017 (GMT -0400)
Boire

Weather History for KASH - October, 2014

Change the Weather History Date:

Friday, October 17, 2014

  Actual Average Record
Temperature  
Mean Temperature 64 °F -  
Max Temperature 72 °F 60 °F 83 °F (1968)
Min Temperature 56 °F 36 °F 21 °F (1978)
Degree Days  
Heating Degree Days 1    
Growing Degree Days 14 (Base 50)    
Moisture  
Dew Point 56 °F    
Average Humidity 82    
Maximum Humidity 100    
Minimum Humidity 47    
Precipitation  
Precipitation 0.00 in - - ()
Sea Level Pressure  
Sea Level Pressure 30.22 in    
Wind  
Wind Speed 1 mph (West)    
Max Wind Speed 14 mph    
Max Gust Speed 18 mph    
Visibility 10 miles    
Events      
Averages and records for this station are not official NWS values.
T = Trace of Precipitation, MM = Missing Value Source: NWS Daily Summary

Daily Weather History Graph

Daily Weather History Graph

Search for Another Location

Airport or City:

Trip Planner

Search our weather history database for the weather conditions in past years. The results will help you decide how hot, cold, wet, or windy it might be!

Date:

Astronomy

Oct. 17, 2014 Rise Set
Actual Time 7:01 AM EDT 6:00 PM EDT
Civil Twilight 6:33 AM EDT 6:28 PM EDT
Nautical Twilight 6:00 AM EDT 7:01 PM EDT
Astronomical Twilight 5:27 AM EDT 7:34 PM EDT
Moon 12:55 AM EDT (10/17) 2:52 PM EDT (10/17)
Length of Visible Light 11h 55m
Length of Day
10h 58m
Waning Crescent, 33% of the Moon is Illuminated
Oct 17
Waning Crescent
Oct 23
New
Oct 30
First Quarter
Nov 6
Full
Nov 14
Last Quarter

Hourly Weather History & Observations

Time (EDT) Temp. Dew Point Humidity Pressure Visibility Wind Dir Wind Speed Gust Speed Precip Events Conditions
12:51 AM 61.0 °F 61.0 °F 100% 30.40 in 10.0 mi Calm Calm - N/A   Scattered Clouds
1:00 AM 60.8 °F 60.8 °F 100% 29.69 in 10.0 mi Calm Calm - N/A   Mostly Cloudy
1:39 AM 60.8 °F 60.8 °F 100% 29.65 in 10.0 mi Calm Calm - N/A   Scattered Clouds
1:51 AM 61.0 °F 59.9 °F 96% 30.38 in 10.0 mi Calm Calm - N/A   Clear
2:51 AM 59.9 °F 59.0 °F 97% 30.37 in 10.0 mi Calm Calm - N/A   Clear
3:12 AM 60.8 °F 59.0 °F 94% 29.65 in 10.0 mi Calm Calm - N/A   Mostly Cloudy
3:42 AM 60.8 °F 59.0 °F 94% 29.60 in 10.0 mi Calm Calm - N/A   Scattered Clouds
3:51 AM 59.9 °F 59.0 °F 97% 30.33 in 10.0 mi Calm Calm - N/A   Partly Cloudy
4:31 AM 60.8 °F 59.0 °F 94% 29.62 in 10.0 mi Calm Calm - N/A   Partly Cloudy
4:51 AM 59.9 °F 59.0 °F 97% 30.33 in 10.0 mi Calm Calm - N/A   Partly Cloudy
5:51 AM 59.0 °F 57.9 °F 96% 30.33 in 10.0 mi Calm Calm - N/A   Partly Cloudy
6:51 AM 57.9 °F 56.8 °F 96% 30.34 in 6.0 mi Calm Calm - N/A   Partly Cloudy
7:51 AM 57.9 °F 56.8 °F 96% 30.35 in 6.0 mi Calm Calm - N/A   Scattered Clouds
8:38 AM 59.0 °F 57.2 °F 94% 29.63 in 10.0 mi Calm Calm - N/A   Mostly Cloudy
8:51 AM 59.0 °F 57.9 °F 96% 30.36 in 10.0 mi Calm Calm - N/A   Scattered Clouds
9:51 AM 61.9 °F 59.0 °F 90% 30.36 in 10.0 mi Calm Calm - N/A   Partly Cloudy
10:51 AM 66.9 °F 57.9 °F 73% 30.35 in 10.0 mi Variable 6.9 mph - N/A   Scattered Clouds
11:51 AM 68.9 °F 54.9 °F 61% 30.36 in 10.0 mi Variable 6.9 mph - N/A   Scattered Clouds
12:51 PM 70.0 °F 50.0 °F 49% 30.35 in 10.0 mi WSW 13.8 mph 18.4 mph N/A   Scattered Clouds
1:51 PM 72.0 °F 50.9 °F 47% 30.34 in 10.0 mi West 9.2 mph 16.1 mph N/A   Scattered Clouds
2:51 PM 68.9 °F 50.0 °F 51% 30.35 in 10.0 mi WNW 5.8 mph 11.5 mph N/A   Scattered Clouds
3:51 PM 70.9 °F 50.0 °F 48% 30.35 in 10.0 mi West 8.1 mph - N/A   Scattered Clouds
4:51 PM 70.9 °F 52.0 °F 51% 30.35 in 10.0 mi Variable 3.5 mph - N/A   Scattered Clouds
5:51 PM 66.9 °F 52.0 °F 59% 30.36 in 10.0 mi Calm Calm - N/A   Partly Cloudy
6:51 PM 63.0 °F 52.0 °F 67% 30.37 in 10.0 mi Calm Calm - N/A   Clear
7:51 PM 59.9 °F 52.9 °F 78% 30.38 in 10.0 mi Calm Calm - N/A   Clear
8:51 PM 59.9 °F 52.9 °F 78% 30.40 in 10.0 mi Calm Calm - N/A   Clear
9:51 PM 59.9 °F 54.0 °F 81% 30.40 in 10.0 mi Calm Calm - N/A   Clear
10:51 PM 56.8 °F 54.0 °F 90% 30.40 in 10.0 mi Calm Calm - N/A   Clear
11:51 PM 57.9 °F 54.9 °F 90% 30.39 in 10.0 mi Calm Calm - N/A   Clear